SCP
0 0 0 1 1 0 0 0 0 0 0 0 0 1 1 2 2 2 2 3 3 3 3 3 3 4 4 4 4 4 3 3 2 2 2 1 1 1 1 1 1 1 0 0 0 0 0 0 0
0 1 1 1 1 0 0 0 0 0 0 0 0 1 2 3 4 3 3 3 3 3 3 3 4 4 5 5 4 4 3 3 3 2 2 1 1 1 1 1 1 1 0 0 0 0 0 0 0
1 1 1 1 1 0 0 0 0 0 0 0 1 1 2 3 5 4 3 3 3 3 3 3 4 5 5 5 4 4 4 3 3 2 2 2 1 1 1 1 1 1 0 0 0 0 0 0 0
1 1 1 1 1 0 0 0 0 0 0 0 1 2 2 3 5 5 4 4 3 3 4 4 5 5 5 5 4 4 4 4 3 3 2 2 1 1 1 1 1 1 1 0 0 0 0 0 0
1 1 1 1 0 0 0 0 0 0 0 0 1 3 3 4 5 5 5 4 4 4 4 5 5 5 5 5 4 4 4 4 3 3 2 2 2 1 1 1 1 1 1 1 0 0 0 0 0
1 1 1 1 0 0 0 0 0 0 0 1 2 4 4 4 4 5 5 5 5 4 5 5 6 5 5 4 4 4 3 3 3 3 2 2 2 2 2 1 1 1 1 1 1 1 1 1 1
1 1 1 0 0 0 0 0 0 0 0 1 3 4 4 3 4 4 5 6 6 5 5 5 6 6 5 4 4 3 3 3 3 3 3 3 3 2 2 2 2 2 1 1 1 1 1 1 1
1 1 1 0 0 0 0 0 0 0 1 2 3 4 4 3 4 5 5 6 6 5 5 5 6 6 6 5 4 3 3 3 3 3 3 3 3 2 2 2 1 1 1 1 1 1 1 1 1
1 1 1 0 0 0 0 0 0 1 2 4 4 4 4 4 6 6 6 5 6 6 5 5 6 7 7 6 4 4 3 3 3 3 3 3 2 2 1 1 1 1 1 1 1 0 0 0 0
1 1 0 0 0 0 0 0 0 2 3 4 5 5 5 5 6 6 5 4 5 6 6 6 6 8 8 7 5 4 4 3 3 3 2 2 2 1 1 1 1 1 1 1 0 0 0 0 0
1 0 0 0 0 0 0 0 0 1 2 3 4 4 4 5 5 5 4 4 4 5 7 7 7 8 9 8 7 6 5 4 3 3 2 2 2 1 1 1 1 1 1 1 1 1 0 0 0
0 0 0 0 0 0 0 0 0 1 1 2 2 3 3 3 4 4 4 4 3 4 6 7 8 8 9 9 8 7 6 5 4 3 3 2 2 2 1 1 1 1 1 1 1 1 0 0 0
0 0 0 0 0 0 0 0 1 1 1 1 2 2 2 2 3 3 4 3 3 3 4 7 8 9 9 10 9 8 6 6 5 4 3 3 2 2 2 2 2 1 1 1 1 1 0 0 0
0 0 0 0 0 0 0 1 1 1 1 2 2 2 2 2 2 3 3 3 2 2 3 5 8 9 9 9 9 8 7 6 6 5 4 4 3 3 2 2 2 2 2 1 1 1 1 0 0
0 0 0 0 0 0 0 1 1 1 2 2 1 1 1 1 2 2 2 3 2 2 2 3 5 8 9 9 9 9 7 6 5 5 5 4 4 3 3 3 3 2 2 2 1 1 1 0 0
0 0 0 0 0 0 1 1 1 1 1 2 1 1 1 1 1 2 2 3 2 2 2 2 4 6 8 8 9 9 8 6 5 4 4 4 4 4 3 3 3 3 3 2 2 1 1 0 0
0 0 0 0 0 0 1 1 1 1 1 1 1 1 1 1 1 2 2 2 2 2 1 2 3 4 6 7 8 8 7 6 4 4 4 4 3 3 3 3 3 3 3 2 2 1 1 0 0
0 0 0 0 0 0 0 1 1 1 0 1 1 1 1 1 1 1 2 2 2 2 1 2 2 3 4 6 7 7 7 5 4 3 3 3 3 2 2 2 2 3 2 2 1 1 1 0 0
0 0 0 0 0 0 0 1 1 0 0 0 1 1 1 1 1 1 2 2 2 2 1 1 2 2 3 4 5 5 5 4 3 2 2 2 2 2 2 1 1 1 1 1 1 0 0 0 0
0 0 0 0 0 0 0 0 0 0 0 0 0 1 1 1 1 1 2 2 2 2 2 1 1 1 2 3 4 4 4 3 2 2 2 2 2 2 1 1 1 1 1 1 0 0 0 0 0
0 0 0 0 0 0 0 0 0 0 0 0 0 0 1 1 1 1 1 1 1 2 2 2 1 1 1 2 4 4 3 3 2 2 2 2 2 1 1 1 1 1 1 0 0 0 0 0 0
0 0 0 0 0 0 0 0 0 0 0 0 0 0 1 1 1 1 1 1 1 1 2 2 2 1 1 2 3 4 3 2 2 2 2 1 1 1 1 1 1 0 0 0 0 0 0 0 0
0 0 0 0 0 0 0 0 0 0 0 0 0 0 1 1 1 2 1 1 1 1 1 1 2 2 2 2 2 3 3 2 2 2 2 1 1 1 1 1 0 0 0 0 0 0 0 0 0
0 0 0 0 0 0 0 0 0 0 0 0 0 0 0 1 1 2 2 1 1 1 1 1 1 1 2 1 2 2 2 1 2 2 2 1 1 1 1 0 0 0 0 0 0 0 0 0 0
0 0 0 0 0 0 0 0 0 0 0 0 0 0 0 1 1 2 2 1 1 1 1 1 1 1 1 1 1 1 1 1 1 2 2 1 1 1 0 0 0 0 0 0 0 0 0 0 0
0 0 0 0 0 0 0 0 0 0 0 0 0 0 0 0 1 1 1 1 1 1 1 1 1 1 1 1 1 1 1 1 1 1 1 1 1 1 0 0 0 0 0 0 0 0 0 0 0
0 0 0 0 0 0 0 0 0 0 0 0 0 0 0 0 0 1 1 1 1 1 1 0 1 1 1 1 1 1 1 1 1 1 1 1 1 0 0 0 0 0 0 0 0 0 0 0 0
0 0 0 0 0 0 0 0 0 0 0 0 0 0 0 0 0 0 0 1 1 1 1 0 0 1 1 1 1 1 0 0 0 0 0 0 0 0 0 0 0 0 0 0 0 0 0 0 0
0 0 0 0 0 0 0 0 0 0 0 0 0 0 0 0 0 0 0 1 1 1 1 0 0 0 0 0 1 1 0 0 0 0 0 0 0 0 0 0 0 0 0 0 0 0 0 0 0
0 0 0 0 0 0 0 0 0 0 0 0 0 0 0 0 0 0 0 1 1 1 1 0 0 0 0 0 1 1 0 0 0 0 0 0 0 0 0 0 0 0 0 0 0 0 0 0 0
Wind_Speed
4 2 2 3 4 2 4 6 4 2 1 1 1 5 7 4 3 5 2 7 9 9 8 11 13 13 13 13 13 13 12 12 12 12 12 12 12 11 11 11 10 10 10 9 9 9 9 9 9
1 1 3 3 4 3 5 5 5 5 4 2 2 4 5 4 2 5 4 7 9 9 8 9 13 13 13 13 13 13 12 12 12 12 11 11 11 11 10 10 10 10 10 9 9 8 8 8 8
1 0 3 3 4 7 6 4 6 3 2 1 3 4 4 3 2 3 4 9 8 7 7 10 12 13 13 13 13 12 12 12 12 11 11 11 11 10 10 10 10 9 9 9 8 8 8 8 7
2 2 2 2 6 6 5 3 3 2 1 2 4 4 3 2 1 4 8 9 9 7 6 8 12 12 12 13 13 12 12 12 11 11 11 10 10 10 10 9 9 9 8 8 8 7 7 7 7
2 3 2 3 7 5 4 4 2 1 0 1 4 5 2 4 5 9 9 10 10 7 6 7 11 12 12 12 12 12 11 11 11 11 10 10 10 10 9 8 8 8 8 7 7 7 7 7 6
2 2 3 6 6 4 4 3 1 0 0 1 4 4 2 2 5 6 8 8 9 8 6 6 9 10 11 11 11 12 11 11 11 10 10 10 9 9 9 8 8 8 7 7 6 6 6 6 6
3 3 5 5 4 4 4 2 2 1 0 1 4 5 2 1 3 5 7 8 8 7 6 5 6 7 9 10 10 10 10 10 10 10 10 9 9 9 9 8 8 7 7 7 6 6 6 6 6
3 3 3 4 4 4 2 0 0 2 1 1 3 7 5 3 3 7 8 7 7 6 6 5 5 5 4 5 9 9 9 10 10 9 9 9 8 8 8 7 7 7 7 6 6 6 6 6 6
2 2 5 5 5 3 1 1 2 2 3 3 2 3 5 7 7 9 8 6 6 6 5 4 5 4 4 4 6 7 8 8 8 7 9 8 4 4 4 5 7 7 6 6 5 5 6 6 5
2 4 7 4 2 2 1 0 0 3 4 3 4 5 6 7 8 9 8 6 5 5 4 4 4 4 3 3 3 3 3 4 4 4 5 4 3 3 4 5 6 6 6 5 5 5 5 5 2
3 5 4 3 2 1 1 1 1 4 0 3 5 6 6 6 7 7 6 5 4 4 4 3 3 3 3 3 3 2 2 2 3 4 4 4 3 2 3 2 2 2 3 2 3 3 2 2 1
2 3 3 3 2 2 2 1 2 1 3 3 6 8 7 7 6 6 6 5 4 4 3 3 3 3 3 3 2 2 2 2 2 3 4 4 3 2 2 1 1 1 1 1 1 1 1 1 1
3 2 2 1 2 1 2 1 1 2 1 4 5 6 7 6 5 4 5 5 4 4 3 2 3 3 2 3 2 2 2 2 3 3 3 4 4 3 2 2 1 1 1 1 1 1 1 1 1
3 2 2 2 2 2 1 2 2 1 3 6 6 5 5 5 5 4 4 4 4 3 3 2 3 3 3 2 2 2 2 2 2 2 3 4 4 3 3 2 1 1 1 1 0 0 0 1 1
1 0 3 2 2 2 2 3 1 2 4 6 5 4 4 3 4 4 4 4 4 4 3 2 2 3 3 3 2 2 2 2 2 2 3 3 3 4 3 2 1 1 1 1 1 1 1 1 2
1 1 2 3 2 2 3 2 3 2 5 5 3 3 3 2 2 3 3 3 4 4 3 2 2 3 3 2 2 2 2 2 2 2 2 3 3 3 3 2 1 1 1 1 1 1 1 1 1
1 3 3 3 2 0 3 3 3 2 5 5 4 3 3 2 2 2 3 4 4 4 4 3 2 3 2 2 2 2 2 2 1 1 2 2 3 3 3 2 1 2 2 1 1 1 1 1 1
4 3 3 3 2 1 1 2 2 1 5 4 4 3 3 3 1 1 2 3 4 3 4 3 3 2 2 2 2 2 3 2 1 1 1 2 2 3 3 2 2 2 2 1 1 1 1 1 1
3 3 3 3 2 1 3 3 2 1 3 3 3 3 3 2 1 2 3 3 4 3 3 3 3 2 2 2 2 2 1 1 1 1 1 2 2 3 3 2 2 2 2 2 1 1 1 2 1
2 2 2 1 0 1 3 2 2 1 3 5 5 5 4 2 1 2 2 3 3 3 3 3 2 2 2 1 1 1 2 1 1 1 1 1 2 2 2 3 2 2 2 2 2 2 1 1 1
1 3 3 1 2 1 2 1 1 1 1 2 3 4 4 5 4 3 2 2 2 2 2 2 1 2 2 2 2 2 3 2 2 2 1 1 1 2 2 2 2 2 2 2 2 2 2 1 0
3 2 2 1 2 1 2 2 4 3 1 2 2 2 3 3 3 3 3 2 2 2 1 2 2 2 2 2 3 4 3 2 1 1 0 0 1 2 2 2 2 2 2 2 2 2 2 3 1
2 2 1 2 2 0 0 2 5 2 3 4 4 4 4 4 4 4 4 3 2 2 2 2 2 2 1 2 3 3 2 1 1 1 1 1 1 1 1 2 2 1 1 2 1 1 2 2 2
0 3 3 3 3 1 3 4 5 3 5 4 4 4 4 4 3 3 2 2 1 2 2 2 2 1 1 1 2 2 2 2 2 1 1 0 1 1 1 1 1 1 1 1 1 1 2 2 2
3 4 2 2 0 4 2 3 6 4 4 5 5 5 4 4 4 3 2 2 2 2 2 1 2 1 1 1 2 2 2 2 2 2 1 1 0 1 1 0 0 1 1 1 1 1 1 2 2
1 4 4 3 3 3 1 3 5 3 2 1 2 3 3 3 3 3 3 3 3 2 2 2 2 1 1 1 1 1 2 1 1 1 1 1 1 1 0 0 0 0 1 1 1 1 1 1 2
2 1 2 3 1 0 3 3 4 2 2 1 2 2 2 2 2 2 2 2 2 2 2 2 1 1 1 0 1 1 1 1 1 1 1 1 0 0 0 0 0 0 0 1 2 1 1 1 2
2 3 3 2 2 1 2 3 3 2 2 0 1 2 1 1 2 2 1 1 1 1 1 1 1 1 0 1 1 1 1 1 1 1 1 1 0 0 0 0 0 0 0 1 1 1 1 1 1
1 1 2 1 2 3 2 5 3 3 2 2 2 1 2 2 2 1 1 1 2 2 2 1 1 1 1 1 1 1 0 1 1 1 1 1 0 0 0 1 1 1 1 1 1 1 1 1 1
1 2 2 2 2 2 2 5 2 0 1 2 1 1 2 2 2 2 2 2 2 2 1 1 1 1 1 0 0 1 1 1 1 1 0 0 0 0 1 1 1 1 1 1 2 2 1 2 2
Wind_Direction
293 352 65 65 68 77 228 240 234 239 199 213 130 110 117 113 137 150 131 128 130 139 146 147 143 139 135 130 126 122 118 115 112 109 107 105 103 100 98 95 92 88 85 82 82 80 79 76 73
12 22 64 76 120 188 243 238 231 228 200 157 82 83 82 76 73 106 116 134 132 139 144 144 143 139 136 132 128 125 122 119 115 112 110 109 107 104 100 97 93 89 85 83 82 79 77 73 71
346 113 104 109 169 196 217 227 220 239 245 145 83 59 93 103 105 111 140 137 126 129 137 144 140 140 137 134 130 127 124 120 117 114 112 111 109 106 102 99 96 91 87 83 79 77 75 72 69
78 69 74 142 214 222 212 228 212 197 355 42 109 72 59 31 115 126 132 130 122 121 126 140 140 137 136 134 132 128 125 123 120 117 114 113 111 108 104 101 97 93 88 84 79 75 72 70 71
78 107 143 213 230 238 244 260 268 192 131 35 96 98 54 352 83 114 124 125 123 120 120 133 138 137 134 133 132 129 127 126 124 120 118 116 114 110 106 102 98 95 90 86 81 75 71 70 70
99 115 167 213 228 246 254 256 296 347 146 76 99 104 108 33 86 113 123 123 125 125 121 123 125 132 134 132 131 131 129 127 124 121 119 116 114 113 107 102 98 95 91 85 79 72 69 67 66
151 154 193 199 219 244 251 237 158 160 77 228 129 107 125 71 102 108 111 114 115 114 113 114 122 121 128 129 128 130 129 127 124 121 117 112 109 110 108 104 100 96 92 86 78 70 65 60 58
160 144 199 202 200 235 251 176 79 126 169 11 99 129 163 188 120 103 97 100 107 106 107 110 110 109 115 127 128 127 129 127 124 120 113 109 107 107 105 102 98 96 90 84 77 68 60 55 53
129 159 210 206 195 227 289 45 351 27 84 37 45 129 148 136 111 99 93 85 96 101 101 105 110 110 111 122 128 127 128 128 125 121 113 107 107 109 105 98 97 94 91 85 79 66 56 51 46
144 204 225 229 211 212 308 295 211 61 38 37 36 54 103 119 115 113 115 114 113 121 120 113 114 120 120 126 120 125 127 132 132 130 125 119 114 109 103 97 94 92 86 80 71 60 53 43 30
179 213 245 279 286 278 312 329 6 118 101 176 149 140 128 118 117 121 127 133 129 134 125 120 124 123 126 124 130 122 122 130 135 133 131 122 109 104 96 98 90 85 76 67 55 46 33 30 25
191 255 251 276 316 328 302 304 30 88 206 186 158 152 140 131 132 137 140 136 124 114 117 117 123 121 120 125 135 134 134 139 142 147 142 133 126 118 121 114 112 103 91 76 50 32 23 19 15
224 254 276 273 345 342 26 6 73 342 146 130 124 127 139 142 137 131 134 132 126 112 107 113 122 123 121 116 134 135 139 146 147 148 151 142 140 142 138 133 123 112 100 99 65 27 17 13 3
210 261 309 312 328 320 57 326 64 291 116 118 127 132 140 143 137 121 123 127 126 119 115 122 125 128 123 123 128 142 147 146 144 149 155 149 148 148 144 139 131 123 128 121 116 58 26 357 17
163 75 328 288 266 262 75 4 276 209 121 113 121 126 123 127 124 135 149 144 141 134 121 108 127 119 121 126 138 139 139 130 133 144 147 146 146 148 146 143 142 146 137 100 70 38 49 42 37
91 110 256 278 234 262 119 230 255 192 133 132 139 135 122 125 138 136 129 131 136 134 123 111 112 103 105 116 131 137 133 127 136 137 136 131 131 138 138 138 147 136 113 98 104 85 62 41 35
102 191 218 277 259 225 145 210 243 194 144 146 154 154 131 107 80 92 112 123 131 136 133 117 92 107 112 109 116 124 122 115 126 127 126 132 127 127 134 139 138 127 112 95 84 73 87 64 29
197 196 205 228 261 67 165 209 243 153 140 150 156 147 133 128 142 109 104 114 115 112 113 111 94 87 98 94 82 81 82 82 89 115 135 135 131 132 125 135 132 131 121 105 86 87 66 89 51
183 179 206 235 248 203 195 195 217 142 127 145 155 153 152 169 158 95 90 98 97 87 88 94 97 82 95 91 99 116 125 128 101 85 105 131 139 139 130 120 140 144 146 151 128 108 77 56 60
146 163 207 275 266 225 179 213 226 181 179 173 170 171 174 151 98 102 95 93 107 109 98 92 85 87 104 120 140 153 148 149 128 79 75 96 125 136 137 140 153 147 140 128 111 102 88 47 60
249 180 183 211 356 21 121 278 223 228 159 159 173 172 170 169 169 158 133 129 125 120 131 123 107 80 73 89 88 79 69 57 47 32 38 46 113 127 130 147 142 140 134 144 152 142 129 138 10
247 211 176 172 112 247 147 227 252 214 202 191 201 187 185 183 170 164 158 155 165 168 143 120 112 85 71 105 109 119 121 138 199 199 169 58 114 122 116 118 127 136 141 149 170 154 143 145 164
230 268 259 189 151 89 122 169 270 200 218 236 228 214 203 193 182 176 175 177 180 160 137 117 106 86 73 111 130 134 120 133 98 90 92 60 39 79 102 127 127 132 152 166 168 171 153 156 168
0 38 35 51 87 218 214 176 258 223 213 220 226 220 205 190 178 168 158 137 128 117 108 102 104 87 65 103 132 134 128 113 99 83 93 68 16 27 51 87 123 150 162 172 183 182 174 175 175
72 88 58 20 29 241 216 182 246 250 217 203 207 206 193 175 159 147 138 137 129 123 121 111 106 92 58 86 119 127 135 144 152 159 172 153 59 343 311 51 117 184 195 179 167 169 184 185 182
202 136 153 185 207 269 270 217 255 276 258 215 176 167 153 153 153 157 165 162 159 153 144 136 119 94 76 91 131 123 124 127 148 161 167 190 202 218 267 5 34 15 180 174 171 187 211 201 202
142 172 163 126 112 241 260 284 298 7 17 46 84 108 133 147 145 145 137 143 155 154 164 165 138 90 60 63 111 122 120 111 122 136 133 170 174 37 51 61 82 24 193 185 182 204 217 210 217
141 142 93 122 154 228 273 259 254 279 276 198 127 148 153 111 100 101 105 113 117 134 118 99 108 126 22 55 95 93 126 133 111 119 117 106 54 58 83 210 185 217 233 212 194 214 223 212 237
80 97 114 144 168 163 217 263 246 214 200 181 181 148 128 112 110 117 102 91 82 68 68 73 62 42 24 38 65 79 97 101 100 119 144 140 81 92 168 250 225 214 213 220 201 214 207 209 243
159 157 145 165 242 195 181 268 320 163 126 131 147 123 105 98 84 75 84 81 73 60 41 22 359 5 329 309 79 78 79 82 83 71 38 62 75 291 288 285 251 238 230 220 207 216 212 223 239